Home > Weather > Guilin > Past weeks

Flag for China Weather for the Past 2 Weeks in Guilin, Guangxi, China

Now
66 °F

Fog.


Feels Like: 66 °F
Forecast: 67 / 79 °F
Wind: No wind

Location: Guilin Airport

Current Time: Apr 30, 2016 at 5:09:21 PM

Latest Report: Apr 30, 2016 at 4:00 PM


Visibility: 3 mi

Pressure: 29.83 "Hg

Humidity: 94%

Dew Point: 64 °F

Location of GuilinLocation

Historic Weather in Guilin — Graph

°F

Guilin Temperature Yesterday

Maximum temperature yesterday: 68 °F (at 2:00 PM)
Minimum temperature yesterday: 61 °F (at 2:00 AM)
Average temperature yesterday: 65 °F

High & Low Weather Summary for the Past Weeks

 TemperatureHumidityPressure
High91 °F (Apr 16, 3:00 PM)100% (Apr 15, 9:00 PM)30.12 "Hg (Apr 15, 9:00 PM)
Low55 °F (Apr 18, 5:00 AM)34% (Apr 16, 3:00 PM)29.62 "Hg (Apr 16, 4:00 AM)
Average69 °F88%29.86 "Hg
* Reported Apr 15 4:00 PM — Apr 30 4:00 PM, Guilin, Weather by CustomWeather, © 2016

Note: Actual official high and low records may vary slightly from our data, if they occured in-between our weather recording intervals... More about our weather records

Advertising

Guilin Weather History for the Previous 24 Hours

Scroll right to see more
 ConditionsComfort  
Time TempWeatherWind HumidityBarometerVisibility
4:00 PM
Sat, Apr 30
66 °FFog.No wind94%29.83 "Hg3 mi
3:00 PM66 °FFog.1 mph88%29.86 "Hg3 mi
2:00 PM66 °FFog.No wind88%29.86 "Hg3 mi
1:00 PM64 °FFog.No wind94%29.89 "Hg3 mi
12:00 PM64 °FLight rain. Fog.3 mph94%29.92 "Hg2 mi
11:00 AM64 °FLight rain. Fog.No wind100%29.95 "Hg1 mi
10:00 AM63 °FLight rain. Fog.No wind100%29.95 "Hg1 mi
9:00 AM63 °FLight rain. Fog.No wind100%29.95 "Hg1 mi
8:00 AM63 °FLight rain. Fog.No wind100%29.92 "Hg1 mi
7:00 AM63 °FLight rain. Fog.No wind100%29.92 "Hg1 mi
6:00 AM63 °FLight rain. Fog.No wind100%29.92 "Hg1 mi
5:00 AM63 °FLight rain. Fog.No wind100%29.92 "Hg1 mi
4:00 AM63 °FLight rain. Fog.No wind100%29.92 "Hg1 mi
3:00 AM63 °FLight rain. Fog.No wind100%29.92 "Hg1 mi
2:00 AM63 °FLight rain. Fog.No wind100%29.92 "Hg2 mi
1:00 AM63 °FLight rain. Fog.No wind100%29.95 "Hg3 mi
12:00 AM63 °FFog.1 mph100%29.98 "Hg3 mi
11:00 PM
Fri, Apr 29
63 °FSprinkles. Fog.1 mph100%29.98 "Hg2 mi
10:00 PM63 °FSprinkles. Fog.1 mph100%30.01 "Hg3 mi
9:00 PM64 °FLight rain. Fog.1 mph94%29.98 "Hg3 mi
8:00 PM64 °FMostly cloudy.3 mph94%29.98 "Hg4 mi
7:00 PM66 °FLight rain. More clouds than sun.6 mph94%29.98 "Hg4 mi
6:00 PM68 °FFog.3 mph94%29.95 "Hg2 mi
5:00 PM68 °FFog.3 mph94%29.95 "Hg2 mi
Weather by CustomWeather, © 2016

See weather overviewHow to use our weather pages